MPEC 1999-V44: 1999 VF22

The following Minor Planet Electronic Circular may be linked-to from your own Web pages, but must not otherwise be redistributed electronically.


Read MPEC 1999-V43 Read MPEC 1999-V45


M.P.E.C. 1999-V44                                Issued 1999 Nov. 14, 19:13 UT

     The Minor Planet Electronic Circulars contain information on unusual
         minor planets and routine data on comets.  They are published
   on behalf of Commission 20 of the International Astronomical Union by the
          Minor Planet Center, Smithsonian Astrophysical Observatory,
                          Cambridge, MA 02138, U.S.A.

             BMARSDEN@CFA.HARVARD.EDU or GWILLIAMS@CFA.HARVARD.EDU
          URL http://cfa-www.harvard.edu/iau/mpc.html  ISSN 1523-6714

                                   1999 VF22

Observations:
     J99V22F* C1999 11 10.14219 00 43 22.17 +26 00 05.4          17.5 R      703
     J99V22F  C1999 11 10.15448 00 43 24.69 +25 59 09.1          17.7 R      703
     J99V22F  C1999 11 10.16684 00 43 27.19 +25 58 12.0          18.1 R      703
     J99V22F  C1999 11 10.17916 00 43 29.63 +25 57 15.4          18.2 R      703
     J99V22F  C1999 11 11.16586 00 46 51.18 +24 48 00.0          17.8 R      853
     J99V22F  C1999 11 11.16728 00 46 51.43 +24 47 54.4          18.1 R      853
     J99V22F  C1999 11 11.16817 00 46 51.46 +24 47 35.4          17.4 V      681
     J99V22F  C1999 11 11.16942 00 46 51.70 +24 47 29.9          17.9 V      681
     J99V22F  C1999 11 11.17235 00 46 52.24 +24 47 19.5          17.8 V      681
     J99V22F  C1999 11 11.24396 00 47 04.10 +24 43 02.4                      651
     J99V22F  C1999 11 11.24955 00 47 04.99 +24 42 40.6                      651
     J99V22F  C1999 11 11.25458 00 47 05.80 +24 42 22.0          18.0 V      651
     J99V22F  C1999 11 11.32038 00 47 17.39 +24 37 53.2                      681
     J99V22F  C1999 11 11.32171 00 47 17.55 +24 37 48.9          17.4 V      681
     J99V22F  C1999 11 11.32368 00 47 17.90 +24 37 42.2          17.5 V      681
     J99V22F  C1999 11 11.32493 00 47 18.14 +24 37 38.3                      681
     J99V22F  C1999 11 11.96897 00 49 09.06 +23 59 36.6          17.4 R      118
     J99V22F  C1999 11 11.97015 00 49 09.22 +23 59 32.8                      118
     J99V22F  C1999 11 11.97385 00 49 09.76 +23 59 20.3                      118
     J99V22F  C1999 11 12.08986 00 49 32.37 +23 53 08.1          18.1 R      853
     J99V22F  C1999 11 12.09257 00 49 32.76 +23 52 59.5          18.3 R      853
     J99V22F  C1999 11 12.09343 00 49 32.89 +23 52 56.6          18.3 R      853
     J99V22F  C1999 11 12.15149 00 49 40.98 +23 49 48.4          18.4 V      719
     J99V22F  C1999 11 12.15778 00 49 41.96 +23 49 26.6          18.6 V      719
     J99V22F  C1999 11 12.18164 00 49 45.36 +23 48 13.7                      651
     J99V22F  C1999 11 12.18507 00 49 45.89 +23 48 01.8                      651
     J99V22F  C1999 11 12.18860 00 49 46.38 +23 47 50.5          18.5 V      651
     J99V22F  C1999 11 12.20980 00 49 49.14 +23 46 39.6          18.1 V      719
     J99V22F  C1999 11 12.21515 00 49 49.87 +23 46 21.6          18.2 V      719
     J99V22F  C1999 11 12.70946 00 51 07.53 +23 20 35.7                      595
     J99V22F  C1999 11 12.71224 00 51 08.04 +23 20 29.5          18.2 V      104
     J99V22F  C1999 11 12.71341 00 51 08.11 +23 20 25.8                      595
     J99V22F  C1999 11 12.71447 00 51 08.35 +23 20 22.9                      104
     J99V22F  C1999 11 12.71701 00 51 08.68 +23 20 15.9                      104
     J99V22F  C1999 11 12.71726 00 51 08.59 +23 20 13.8          18.3 V      595
     J99V22F  C1999 11 12.72002 00 51 09.11 +23 20 06.8                      104
     J99V22F  C1999 11 12.72073 00 51 09.04 +23 20 03.7                      595
     J99V22F  C1999 11 12.76490 00 51 15.18 +23 17 57.6          18.1 V      596
     J99V22F  C1999 11 12.77247 00 51 16.21 +23 17 35.8                      596
     J99V22F  C1999 11 13.71519 00 53 25.54 +22 34 20.9          18.5 V      595
     J99V22F  C1999 11 13.71808 00 53 25.78 +22 34 14.3                      595
     J99V22F  C1999 11 13.72073 00 53 26.01 +22 34 07.0                      595
     J99V22F  C1999 11 13.85833 00 53 42.19 +22 28 23.6          18.6 R      587
     J99V22F  C1999 11 13.86574 00 53 42.94 +22 28 04.9                      587
     J99V22F  C1999 11 14.06941 00 54 10.28 +22 19 48.1          18.7 R      853
     J99V22F  C1999 11 14.07144 00 54 10.51 +22 19 43.3          18.5 R      853
     J99V22F  C1999 11 14.07468 00 54 10.88 +22 19 35.9          18.7 R      853

Observer details:
104 San Marcello Pistoiese.  Observers L. Tesi, A. Boattini, M. Tombelli.
    Measurers A. Boattini, G. Forti, L. Tesi, M. Tombelli.  0.40-m f/5
    reflector + CCD.
118 Modra.  Observers A. Galad, D. Kalmancok.  0.6-m f/5.5 reflector + CCD.
587 Sormano.  Observers A. Testa, M. Cavagna.  0.5-m reflector + CCD.
595 Farra d'Isonzo.  Observers A. Toso, E. Pettarin, M. Spolaor.  0.40-m f/4.5
    reflector + CCD.
596 Colleverde di Guidonia.  Observer V. S. Casulli.  0.40-m f/2.95 reflector
    + CCD.
651 Grasslands Observatory, Tucson.  Observer J. E. McGaha.  0.62-m f/5.1
    reflector + CCD.
681 Calgary.  Observer G. W. Billings.  0.36-m f/7 Schmidt-Cassegrain + CCD.
703 Catalina Sky Survey.  Observers J. W. Brownlee, T. B. Spahr.  0.41-m f/3
    Schmidt + CCD.
719 Etscorn Observatory.  Observer D. A. Klinglesmith III.  0.355-m
    Schmidt-Cassegrain + CCD.
853 Biosphere 2 Observatory.  Observers G. J. Garradd, S. Airieau.  0.5-m f/8.1
    reflector + CCD.

Orbital elements:
1999 VF22                                                            PHA 0.036
Epoch 1999 Oct. 29.0 TT = JDT 2451480.5                 Williams
M  28.22349              (2000.0)            P               Q
n   0.64336572     Peri.  271.21978     +0.08823919     +0.99608865
a   1.3289157      Node     3.85164     -0.88445063     +0.08047621
e   0.7436605      Incl.    3.93388     -0.45821493     +0.03648250
P   1.53           H   20.6           G   0.15
From 47 observations 1999 Nov. 10-14.

Ephemeris:
1999 VF22                a,e,i = 1.33, 0.74, 4                   q = 0.3407
Date    TT    R. A. (2000) Decl.     Delta      r     Elong.  Phase     V
1999 11 08    00 33.09   +29 27.9    0.117    1.090   145.9    30.7    17.4
1999 11 13    00 51.79   +23 06.9    0.190    1.154   147.1    27.8    18.5
1999 11 18    01 00.82   +20 16.4    0.266    1.216   144.6    28.1    19.4
1999 11 23    01 07.09   +18 43.2    0.345    1.275   141.1    29.1    20.1
1999 11 28    01 12.36   +17 47.8    0.426    1.331   137.3    30.2    20.7
1999 12 03    01 17.30   +17 14.0    0.509    1.385   133.4    31.1    21.2
1999 12 08    01 22.20   +16 54.4    0.594    1.437   129.4    32.0    21.6
1999 12 13    01 27.21   +16 44.8    0.681    1.487   125.5    32.6    22.0
1999 12 18    01 32.39   +16 42.8    0.770    1.535   121.7    33.1    22.4

Gareth V. Williams           (C) Copyright 1999 MPC           M.P.E.C. 1999-V44

Read MPEC 1999-V43 Read MPEC 1999-V45


Our Web policy. Index to the CBAT/MPC/ICQ pages.

MPC